Location: *
(46.4000°N, 12.6667°E)
Time: 13:25:17
(UTC+00:00)

Cosmos 1697 Rocket - Pass Details

Date: 09 April 2020
Orbit: 831 x 845 km, 71.0° (Epoch: 27 May)

Event Time Altitude Azimuth Distance (km) Brightness Sun altitude
Rises 21:07:17 0° 330° (NNW) 3,412 7.1 -29.0°
Reaches altitude 10° 21:09:45 10° 328° (NNW) 2,474 6.1 -29.3°
Enters shadow 21:14:59 61° 269° (W) 953 3.0 -29.8°
